"Pseudo-MPEC" for xO29001

Created 2022 Dec 7 20:22:17 UT using Find_Orb

Click here for an explanation of pseudo-MPECs

 
 Astrometry: 
     xO29001*LC2022 10 30.60902010 44 38.431-02 56 36.67   ~BNM7 22.5 rVNEOCP568
     xO29001 LC2022 10 30.62309910 44 40.654-02 56 53.48   ~AV3b 22.4 rVNEOCP568
     xO29001 LC2022 10 30.62591810 44 41.098-02 56 56.83   ~AV3b 22.5 rVNEOCP568
     xO29001 LC2022 10 30.63720810 44 42.888-02 57 10.37   ~AV3b 22.4 rVNEOCP568
     xO29001 LC2022 10 30.64845810 44 44.659-02 57 23.87   ~AV3b 22.5 rVNEOCP568
     xO29001 3C2022 11 01nR)1NWHl;TULAstrometryvVL$3+8t*Tredacted;J:Ht@?clickT14
     xO29001 3C2022 11 01$hKbysE7yGjO#pSk!Fe+iyhereI=!i6Z1av1:o4`aR9.vCelv0GvT14
     xO29001 3C2022 11 01O,w?_6:CforMNT4$fOtTi5explanation`\w\%(VM)R5)uN]fh9=T14

Station data:
(568) Mauna Kea  (N19.826114 W155.472200)  US/Hawaii. 3.6-m
   Canada-France-Hawaii Telescope + CCD2.24-m University of Hawaii reflector.
(T14) Mauna Kea-UH/Tholen NEO Follow-Up (CFHT)  (N19.825252 W155.468876)
   US/Hawaii. 3.6-m Canada-France-Hawaii Telescope.

Orbital elements:  xO29001
   Perihelion 2023 Jan 25.89376 +/- 81.4 TT = 21:27:01 (JD 2459970.39376)
Epoch 2022 Nov  1.0 TT = JDT 2459884.5   Earth MOID: 0.4194   Ma: 0.0136
M 340.58831630 +/- 80               (J2000 ecliptic)          AutoNEOCP
n   0.22599642 +/- 0.398            Peri.  310.09805 +/- 100
a   2.66932630 +/- 3.13             Node   241.76644 +/- 18
e   0.4833956 +/- 0.178             Incl.   13.09698 +/- 1.1
P   4.36                   H 18.8   G  0.15   U 12.1  SR
q 1.37898570 +/- 0.432    Q 3.95966689 +/- 3.67
From 8 observations 2022 Oct. 30-Nov. 1; mean residual 0".04
Residuals in arcseconds: 
221030 568  .02-  .01+    221030 568  .08+  .01-    221101 T14  .03-  .02-    
221030 568  .03-  .02+    221030 568  .02+  .06-    221101 T14  .08+  .04+    
221030 568  .05-  .04+    221101 T14  .05-  .02-    

Ephemerides (geocentric):
Date (UTC) HH   RA             Dec           delta  r     elong  mag " sig PA
---- --------  ------------   ------------  ------ ------ -----  --- --------
2022 12 07 20  12 33 57.379   -16 16 27.87  1.6466 1.4649  61.7 22.2 264'  23
2022 12 07 21  12 34 05.147   -16 17 19.62  1.6462 1.4648  61.8 22.2 265'  23
2022 12 07 22  12 34 12.917   -16 18 11.35  1.6459 1.4646  61.8 22.2 266'  23
2022 12 07 23  12 34 20.687   -16 19 03.08  1.6456 1.4645  61.8 22.2 266'  23
2022 12 08 00  12 34 28.460   -16 19 54.80  1.6453 1.4644  61.8 22.2 267'  23
2022 12 08 01  12 34 36.234   -16 20 46.51  1.6449 1.4642  61.8 22.2 268'  23
2022 12 08 02  12 34 44.010   -16 21 38.21  1.6446 1.4641  61.8 22.2 268'  23
2022 12 08 03  12 34 51.787   -16 22 29.90  1.6443 1.4639  61.8 22.2 269'  23
2022 12 08 04  12 34 59.565   -16 23 21.58  1.6440 1.4638  61.8 22.2 270'  23
2022 12 08 05  12 35 07.345   -16 24 13.26  1.6436 1.4637  61.8 22.2 270'  23
2022 12 08 06  12 35 15.127   -16 25 04.92  1.6433 1.4635  61.8 22.2 271'  23
2022 12 08 07  12 35 22.910   -16 25 56.57  1.6430 1.4634  61.8 22.2 272'  23
2022 12 08 08  12 35 30.695   -16 26 48.21  1.6427 1.4633  61.8 22.2 272'  23
2022 12 08 09  12 35 38.481   -16 27 39.84  1.6424 1.4631  61.8 22.2 273'  23
2022 12 08 10  12 35 46.269   -16 28 31.47  1.6420 1.4630  61.8 22.2 274'  23
2022 12 08 11  12 35 54.058   -16 29 23.08  1.6417 1.4628  61.9 22.2 275'  23
2022 12 08 12  12 36 01.849   -16 30 14.68  1.6414 1.4627  61.9 22.2 275'  23
2022 12 08 13  12 36 09.641   -16 31 06.28  1.6411 1.4626  61.9 22.2 276'  23
2022 12 08 14  12 36 17.435   -16 31 57.86  1.6407 1.4624  61.9 22.2 277'  23
2022 12 08 15  12 36 25.230   -16 32 49.43  1.6404 1.4623  61.9 22.2 277'  23
2022 12 08 16  12 36 33.027   -16 33 41.00  1.6401 1.4622  61.9 22.2 278'  23
2022 12 08 17  12 36 40.825   -16 34 32.55  1.6398 1.4620  61.9 22.2 279'  23
2022 12 08 18  12 36 48.625   -16 35 24.10  1.6395 1.4619  61.9 22.2 279'  23
2022 12 08 19  12 36 56.427   -16 36 15.63  1.6391 1.4617  61.9 22.2 280'  23
2022 12 08 20  12 37 04.230   -16 37 07.15  1.6388 1.4616  61.9 22.2 281'  23
2022 12 08 21  12 37 12.034   -16 37 58.67  1.6385 1.4615  61.9 22.2 282'  23
2022 12 08 22  12 37 19.840   -16 38 50.17  1.6382 1.4613  61.9 22.2 282'  23
2022 12 08 23  12 37 27.648   -16 39 41.66  1.6379 1.4612  61.9 22.2 283'  23
2022 12 09 00  12 37 35.457   -16 40 33.15  1.6375 1.4611  61.9 22.2 284'  23
2022 12 09 01  12 37 43.268   -16 41 24.62  1.6372 1.4609  62.0 22.2 284'  23
2022 12 09 02  12 37 51.080   -16 42 16.08  1.6369 1.4608  62.0 22.2 285'  23
2022 12 09 03  12 37 58.893   -16 43 07.54  1.6366 1.4607  62.0 22.2 286'  23
2022 12 09 04  12 38 06.709   -16 43 58.98  1.6363 1.4605  62.0 22.2 286'  23
2022 12 09 05  12 38 14.525   -16 44 50.41  1.6359 1.4604  62.0 22.2 287'  23
2022 12 09 06  12 38 22.344   -16 45 41.83  1.6356 1.4603  62.0 22.2 288'  22
2022 12 09 07  12 38 30.163   -16 46 33.24  1.6353 1.4601  62.0 22.2 289'  22
2022 12 09 08  12 38 37.985   -16 47 24.64  1.6350 1.4600  62.0 22.2 289'  22
2022 12 09 09  12 38 45.808   -16 48 16.03  1.6347 1.4598  62.0 22.2 290'  22
2022 12 09 10  12 38 53.632   -16 49 07.41  1.6343 1.4597  62.0 22.2 291'  22
2022 12 09 11  12 39 01.458   -16 49 58.78  1.6340 1.4596  62.0 22.2 291'  22
2022 12 09 12  12 39 09.285   -16 50 50.14  1.6337 1.4594  62.0 22.2 292'  22
2022 12 09 13  12 39 17.114   -16 51 41.49  1.6334 1.4593  62.0 22.2 293'  22
2022 12 09 14  12 39 24.945   -16 52 32.83  1.6331 1.4592  62.0 22.2 294'  22
2022 12 09 15  12 39 32.777   -16 53 24.15  1.6328 1.4590  62.1 22.2 294'  22
2022 12 09 16  12 39 40.610   -16 54 15.47  1.6324 1.4589  62.1 22.2 295'  22
2022 12 09 17  12 39 48.445   -16 55 06.77  1.6321 1.4588  62.1 22.2 296'  22
2022 12 09 18  12 39 56.282   -16 55 58.07  1.6318 1.4586  62.1 22.2 297'  22
2022 12 09 19  12 40 04.120   -16 56 49.35  1.6315 1.4585  62.1 22.2 297'  22